CW5437 Weather Reports


Display with metric or nautical units.
time (UTC)temp
F
wind
direction
speed
MPH
gust
MPH
rain 1hr
in
rain 24hr
in
rain mn
in
humidity
%
barometer
mb
20260509224005 64 205 8.0 13.0 0.00 0.16 0.16 52 1005.8
20260509223006 64 250 7.0 9.0 0.00 0.16 0.16 53 1005.7
20260509222006 65 228 4.0 6.0 0.00 0.16 0.16 53 1005.7
20260509221021 65 205 7.0 9.0 0.00 0.16 0.16 52 1005.9
20260509215001 66 228 12.0 16.0 0.00 0.16 0.16 50 1005.9
20260509214002 66 205 10.0 12.0 0.00 0.16 0.16 50 1005.6
20260509210006 65 228 10.0 17.0 0.00 0.16 0.16 52 1006.1
20260509204006 65 205 14.0 19.0 0.00 0.16 0.16 51 1006.5
20260509203006 66 205 9.0 13.0 0.00 0.16 0.16 52 1006.3
20260509202007 65 228 10.0 14.0 0.00 0.16 0.16 52 1007.2
20260509201002 65 228 12.0 18.0 0.00 0.16 0.16 52 1006.6
20260509200002 65 250 16.0 23.0 0.00 0.16 0.16 50 1006.8
20260509195003 65 228 13.0 19.0 0.00 0.16 0.16 57 1006.9
20260509194004 64 228 8.0 13.0 0.00 0.16 0.16 54 1006.8
20260509193005 64 250 8.0 12.0 0.00 0.16 0.16 57 1007.1
20260509192006 63 205 11.0 14.0 0.00 0.16 0.16 59 1007.3
20260509191006 63 205 11.0 17.0 0.00 0.16 0.16 58 1007.4
20260509185006 63 228 16.0 21.0 0.00 0.16 0.16 61 1007.8
20260509184006 61 228 16.0 20.0 0.00 0.16 0.16 64 1007.8
20260509183007 62 205 13.0 19.0 0.00 0.16 0.16 64 1007.8
20260509182008 61 228 9.0 14.0 0.00 0.16 0.16 72 1007.8
20260509181003 60 138 4.0 6.0 0.00 0.16 0.16 72 1007.8
20260509180003 59 228 7.0 14.0 0.00 0.16 0.16 75 1008.1
20260509175004 58 205 7.0 9.0 0.00 0.16 0.16 75 1008.3
20260509174004 59 228 8.0 11.0 0.00 0.16 0.16 75 1008.4
20260509173005 58 228 8.0 11.0 0.00 0.16 0.16 79 1008.4
20260509172005 58 228 8.0 11.0 0.00 0.16 0.16 80 1008.5
20260509171006 57 228 9.0 12.0 0.00 0.16 0.16 80 1008.6
20260509170006 57 228 9.0 11.0 0.00 0.16 0.16 81 1008.7
20260509165007 56 228 9.0 11.0 0.00 0.16 0.16 83 1008.7
20260509164002 56 205 5.0 8.0 0.00 0.16 0.16 85 1008.7
20260509163003 55 228 6.0 8.0 0.00 0.16 0.16 85 1008.7
20260509162004 55 183 6.0 8.0 0.00 0.16 0.16 85 1008.6
20260509160004 55 228 2.0 4.0 0.00 0.16 0.16 90 1008.6
20260509155004 54 205 5.0 9.0 0.00 0.16 0.16 90 1008.7
20260509153003 54 183 3.0 5.0 0.00 0.16 0.16 93 1008.8
20260509152004 53 183 6.0 9.0 0.00 0.16 0.16 93 1008.8
20260509151005 52 205 3.0 5.0 0.00 0.16 0.16 94 1008.8
20260509145005 52 228 6.0 9.0 0.00 0.16 0.16 95 1008.9
20260509144005 52 228 3.0 4.0 0.00 0.16 0.16 95 1008.9
20260509143006 52 183 5.0 7.0 0.00 0.16 0.16 95 1009.2
20260509142001 51 205 5.0 7.0 0.00 0.16 0.16 95 1008.8
20260509141002 52 228 4.0 5.0 0.00 0.16 0.16 95 1008.8
20260509140002 51 183 3.0 4.0 0.00 0.16 0.16 96 1008.8
20260509135003 51 228 4.0 6.0 0.00 0.16 0.16 96 1008.8
20260509134003 51 205 2.0 4.0 0.00 0.16 0.16 96 1008.9
20260509133004 51 183 3.0 6.0 0.00 0.16 0.16 96 1008.9
20260509132005 51 183 3.0 5.0 0.00 0.16 0.16 96 1008.9
20260509125004 50 160 4.0 6.0 0.00 0.16 0.16 97 1009.1
20260509124003 50 228 5.0 7.0 0.00 0.16 0.16 97 1009.1
20260509123007 50 205 4.0 6.0 0.00 0.17 0.16 97 1009.3
20260509122005 50 183 3.0 5.0 0.00 0.20 0.16 97 1009.4
20260509121006 49 205 3.0 4.0 0.00 0.22 0.16 97 1009.4
20260509120005 49 160 4.0 5.0 0.00 0.23 0.16 97 1009.5
20260509115005 49 183 2.0 3.0 0.00 0.23 0.16 97 1009.5
20260509114006 49 160 2.0 3.0 0.00 0.23 0.16 97 1009.5
20260509113001 49 205 3.0 4.0 0.00 0.22 0.15 97 1009.5
20260509112001 49 183 2.0 4.0 0.00 0.23 0.15 97 1009.4
20260509111002 49 160 5.0 7.0 0.00 0.27 0.15 97 1009.4
20260509110002 49 205 3.0 6.0 0.00 0.29 0.15 97 1009.4
20260509105003 49 160 4.0 6.0 0.00 0.29 0.15 97 1009.4
20260509104003 49 160 3.0 6.0 0.00 0.29 0.15 97 1009.4
20260509101002 49 183 2.0 3.0 0.00 0.30 0.15 97 1009.5
20260509100002 49 183 2.0 3.0 0.00 0.30 0.15 97 1009.5
20260509095002 49 228 2.0 3.0 0.00 0.31 0.15 97 1009.6
20260509094003 49 228 2.0 3.0 0.00 0.31 0.15 97 1009.5
20260509093003 49 228 1.0 2.0 0.00 0.31 0.15 97 1009.5
20260509092003 49 228 3.0 4.0 0.00 0.31 0.15 97 1009.6
20260509091004 49 228 2.0 3.0 0.00 0.31 0.15 97 1009.4
20260509090004 49 138 2.0 3.0 0.00 0.31 0.15 97 1009.4
20260509084003 49 93 2.0 3.0 0.00 0.30 0.14 97 1009.5
20260509082001 49 228 2.0 4.0 0.00 0.28 0.12 96 1009.7
20260509081002 49 138 2.0 3.0 0.00 0.27 0.11 96 1009.6
20260509080002 49 205 2.0 3.0 0.00 0.26 0.10 96 1009.6
20260509075002 49 115 3.0 3.0 0.00 0.25 0.09 96 1009.7
20260509074002 49 160 3.0 4.0 0.00 0.23 0.07 96 1009.7
20260509073002 49 138 4.0 5.0 0.00 0.22 0.06 96 1009.7
20260509072002 49 160 4.0 6.0 0.00 0.21 0.05 96 1009.7
20260509071002 49 205 2.0 4.0 0.00 0.19 0.03 95 1009.9
20260509070001 49 183 3.0 4.0 0.00 0.19 0.03 95 1009.9
20260509065002 49 160 4.0 6.0 0.00 0.18 0.02 94 1010.6
20260509064002 49 138 4.0 6.0 0.00 0.17 0.01 94 1010.1
20260509062007 49 183 6.0 9.0 0.00 0.17 0.01 93 1010.5
20260509061001 49 183 5.0 8.0 0.00 0.16 0.00 93 1010.7
20260509060001 49 205 5.0 9.0 0.00 0.16 0.00 93 1010.8
20260509054001 50 160 4.0 7.0 0.00 0.16 0.00 93 1010.9
20260509052002 49 160 4.0 5.0 0.00 0.16 0.00 92 1011.3
20260509051002 49 205 3.0 4.0 0.00 0.16 0.00 92 1011.3
20260509050003 49 160 3.0 4.0 0.00 0.16 0.00 91 1011.4
20260509045004 49 228 2.0 3.0 0.00 0.16 0.00 90 1011.4
20260509044004 50 250 6.0 9.0 0.00 0.16 0.00 90 1011.5
20260509043005 50 228 5.0 9.0 0.00 0.16 0.00 88 1011.6
20260509042005 50 205 5.0 9.0 0.00 0.16 0.00 86 1011.7
20260509041006 51 250 3.0 5.0 0.00 0.16 0.00 84 1011.6
20260509040009 51 250 1.0 1.0 0.00 0.16 0.00 83 1011.6
20260509035007 51 228 3.0 5.0 0.00 0.16 0.16 81 1011.6
20260509034002 51 205 3.0 4.0 0.00 0.16 0.16 80 1011.7
20260509032002 51 228 7.0 9.0 0.00 0.16 0.16 80 1011.8
20260509031003 51 205 6.0 10.0 0.00 0.16 0.16 79 1011.9
20260509025002 51 160 2.0 3.0 0.00 0.16 0.16 74 1012.1
20260509024003 51 183 3.0 4.0 0.00 0.16 0.16 72 1012.2
20260509023004 51 160 3.0 4.0 0.00 0.16 0.16 69 1012.1
20260509021004 52 160 2.0 3.0 0.00 0.16 0.16 63 1012.1
20260509015004 52 160 2.0 3.0 0.00 0.16 0.16 62 1012.1
20260509014004 52 160 3.0 4.0 0.00 0.16 0.16 62 1012.0
20260509013005 52 183 2.0 3.0 0.00 0.16 0.16 61 1012.1
20260509012006 52 160 2.0 2.0 0.00 0.16 0.16 60 1011.9
20260509011007 52 183 2.0 3.0 0.00 0.16 0.16 59 1011.8
20260509005007 53 205 2.0 3.0 0.00 0.16 0.16 57 1012.0
20260509004002 53 228 2.0 3.0 0.00 0.16 0.16 57 1011.6
20260509003002 53 295 4.0 5.0 0.00 0.16 0.16 55 1011.5
20260509002003 53 250 3.0 4.0 0.00 0.16 0.16 55 1011.3
20260509001003 53 250 2.0 4.0 0.00 0.16 0.16 58 1011.4
20260508235002 54 318 1.0 3.0 0.00 0.16 0.16 57 1011.2
20260508234003 54 3 3.0 6.0 0.00 0.16 0.16 56 1011.3
20260508233004 54 318 5.0 10.0 0.00 0.16 0.16 57 1011.3
20260508232004 54 340 3.0 6.0 0.00 0.16 0.16 56 1011.4
20260508231004 54 273 4.0 7.0 0.00 0.16 0.16 57 1011.2
20260508230005 55 273 4.0 7.0 0.00 0.16 0.16 57 1011.2
20260508225006 55 318 6.0 12.0 0.00 0.16 0.16 56 1011.1